KJ7AZ-3 Weather Reports


time (UTC)temp
C
wind
direction
speed
KPH
gust
KPH
rain 1hr
cm
rain 24hr
cm
rain mn
cm
humidity
%
barometer
mb
20260902110316 17 242 0.0 0.0 0.00 0.00 0.00
20260902104814 17 242 0.0 0.0 0.00 0.00 0.00
20260902103318 17 242 0.0 0.0 0.00 0.00 0.00
20260902101813 17 242 0.0 0.0 0.00 0.00 0.00
20260902100313 17 242 0.0 0.0 0.00 0.00 0.00
20260902094813 17 242 0.0 0.0 0.00 0.00 0.00
20260902093311 17 242 0.0 0.0 0.00 0.00 0.00
20260902091811 18 242 0.0 0.0 0.00 0.00 0.00
20260902090310 18 242 0.0 0.0 0.00 0.00 0.00
20260902084810 18 242 0.0 0.0 0.00 0.00 0.00
20260902083310 19 242 1.6 0.0 0.00 0.00 0.00
20260902081809 19 108 0.0 0.0 0.00 0.00 0.00
20260902080309 18 108 0.0 0.0 0.00 0.00 0.00
20260902074808 19 108 0.0 0.0 0.00 0.00 0.00
20260902073308 19 108 0.0 0.0 0.00 0.00 0.00
20260902071807 20 108 0.0 0.0 0.00 0.00 0.00
20260902070307 20 108 0.0 0.0 0.00 0.00 0.00
20260902064806 20 108 0.0 0.0 0.00 0.00 0.00
20260902063306 19 108 0.0 0.0 0.00 0.00 0.00
20260902061805 18 108 0.0 0.0 0.00 0.00 0.00
20260902060305 18 108 0.0 0.0 0.00 0.00 0.00
20260902054805 18 108 0.0 0.0 0.00 0.00 0.00
20260902053304 18 108 0.0 0.0 0.00 0.00 0.00
20260902051804 19 108 0.0 0.0 0.00 0.00 0.00
20260902050303 18 108 0.0 0.0 0.00 0.00 0.00
20260902044803 19 108 0.0 0.0 0.00 0.00 0.00
20260902043302 19 108 0.0 0.0 0.00 0.00 0.00
20260902041802 19 108 0.0 0.0 0.00 0.00 0.00
20260902040302 20 108 0.0 0.0 0.00 0.00 0.00
20260902034800 20 108 0.0 0.0 0.00 0.00 0.00
20260902033300 20 108 0.0 0.0 0.00 0.00 0.00
20260902031759 20 108 0.0 0.0 0.00 0.00 0.00
20260902030259 20 108 0.0 0.0 0.00 0.00 0.00
20260902024758 20 108 0.0 0.0 0.00 0.00 0.00
20260902023258 20 108 0.0 0.0 0.00 0.00 0.00
20260902021757 20 108 0.0 0.0 0.00 0.00 0.00
20260902020257 20 108 0.0 0.0 0.00 0.00 0.00
20260902014756 21 141 0.0 0.0 0.00 0.00 0.00
20260902013255 21 103 0.0 0.0 0.00 0.00 0.00
20260902011754 22 111 0.0 0.0 0.00 0.00 0.00
20260902010253 22 138 0.0 0.0 0.00 0.00 0.00
20260902004753 23 138 0.0 0.0 0.00 0.00 0.00
20260902003252 23 107 1.6 0.0 0.00 0.00 0.00
20260902001751 24 127 8.0 8.0 0.00 0.00 0.00
20260902000250 25 136 3.2 4.8 0.00 0.00 0.00
20260901234749 25 56 4.8 3.2 0.00 0.00 0.00
20260901233248 26 91 6.4 4.8 0.00 0.00 0.00
20260901231747 26 45 8.0 8.0 0.00 0.00 0.00
20260901230246 28 321 9.7 9.7 0.00 0.00 0.00
20260901224745 29 281 3.2 0.0 0.00 0.00 0.00
20260901223244 30 260 6.4 6.4 0.00 0.00 0.00
20260901221742 28 338 9.7 1.6 0.00 0.00 0.00
20260901220241 28 297 6.4 6.4 0.00 0.00 0.00
20260901211738 28 297 4.8 6.4 0.00 0.00 0.00
20260901210237 29 28 4.8 3.2 0.00 0.00 0.00
20260901203234 31 323 6.4 4.8 0.00 0.00 0.00
20260901200232 34 72 0.0 0.0 0.00 0.00 0.00
20260901194730 31 330 1.6 0.0 0.00 0.00 0.00
20260901193229 30 329 4.8 3.2 0.00 0.00 0.00
20260901191728 30 335 3.2 4.8 0.00 0.00 0.00
20260901190228 31 305 0.0 3.2 0.00 0.00 0.00
20260901184725 28 314 0.0 0.0 0.00 0.00 0.00
20260901183226 30 316 1.6 6.4 0.00 0.00 0.00
20260901181724 28 309 3.2 6.4 0.00 0.00 0.00
20260901180223 29 255 0.0 0.0 0.00 0.00 0.00
20260901173221 28 342 0.0 0.0 0.00 0.00 0.00
20260901171720 26 293 1.6 0.0 0.00 0.00 0.00
20260901170220 28 180 0.0 0.0 0.00 0.00 0.00
20260901160340 28 6 0.0 0.0 0.00 0.03 0.00
20260901154840 30 6 0.0 0.0 0.00 0.03 0.00
20260901153339 28 6 0.0 0.0 0.00 0.03 0.00
20260901151838 29 6 0.0 0.0 0.00 0.03 0.00
20260901150338 28 6 0.0 0.0 0.00 0.03 0.00
20260901144838 27 6 0.0 0.0 0.00 0.03 0.00
20260901143338 26 6 0.0 0.0 0.00 0.03 0.00
20260901141841 25 6 0.0 0.0 0.00 0.03 0.00
20260901140339 22 6 0.0 0.0 0.00 0.03 0.00
20260901134838 20 6 0.0 0.0 0.00 0.03 0.00
20260901131838 18 6 0.0 0.0 0.00 0.03 0.00
20260901130339 15 6 0.0 0.0 0.00 0.03 0.00
20260901124839 14 6 0.0 0.0 0.00 0.03 0.00
20260901123339 14 6 0.0 0.0 0.00 0.03 0.00
20260901121839 14 6 0.0 0.0 0.00 0.03 0.00